sat.trackr.live / text

‹ back to catalog

STARLINK-31350

NORAD 58933 · 2024-027C

PAYLOAD ACTIVE UNKNOWN

§ Identity

Operator
Country
US
Launch date
2024-02-10
Launch site
AFWTR
Launch vehicle
Mass (kg)
RCS (m²)

Purposes: comms

External: N2YO · Heavens-Above · Gunter

§ Orbital elements

Epoch: 2026-09-20T02:33:40.191552Z

Period
93.85 min
Inclination
53.1606°
Eccentricity
0.0001449
Mean motion
15.34428755 rev/d
Perigee alt
461.6 km
Apogee alt
463.6 km
Semi-major
6,840.8 km
B*
2.0632e-4
RAAN
125.2179°
Arg perigee
103.5337°
Mean anomaly
256.5827°
Rev number
14,711

§ Raw data

STARLINK-313501 58933U 24027C   26263.10671518  .00006607  00000+0  20632-3 0  99952 58933  53.1606 125.2179 0001449 103.5337 256.5827 15.34428755147111

JSON: /api/v1/satellites/58933 · /tle

For live sub-satellite position, see the globe view (requires WebGL).

§ Visibility from observer

Set your observer location to see the next 7 days of passes ≥ 10°. The values pass through the URL so the page stays shareable.

No JS? Fill the form by hand. The geolocation button needs JavaScript.